TimeCST,TemperatureF,Dew PointF,Humidity,Sea Level PressureIn,VisibilityMPH,Wind Direction,Wind SpeedMPH,Gust SpeedMPH,PrecipitationIn,Events,Conditions,WindDirDegrees,DateUTC
12:15 AM,46.4,44.6,93,30.02,9.0,South,10.4,-,N/A,,Overcast,170,2012-12-15 06:15:00
12:35 AM,46.4,44.6,93,30.02,9.0,South,8.1,-,N/A,,Overcast,180,2012-12-15 06:35:00
1:15 AM,46.4,44.6,93,29.99,10.0,SE,9.2,-,N/A,,Overcast,140,2012-12-15 07:15:00
1:35 AM,46.4,44.6,93,29.99,10.0,SSE,11.5,-,N/A,,Overcast,150,2012-12-15 07:35:00
1:55 AM,46.4,44.6,93,29.98,10.0,SSE,11.5,-,N/A,,Overcast,150,2012-12-15 07:55:00
2:16 AM,46.4,44.6,93,29.97,9.0,SSE,15.0,-,N/A,,Overcast,150,2012-12-15 08:16:00
2:35 AM,48.2,46.4,93,29.97,10.0,SSE,15.0,-,N/A,,Overcast,160,2012-12-15 08:35:00
3:35 AM,50.0,46.4,87,29.93,0.8,SSE,19.6,-,N/A,,Overcast,160,2012-12-15 09:35:00
3:55 AM,50.0,46.4,87,29.91,1.0,SSE,17.3,-,N/A,,Overcast,160,2012-12-15 09:55:00
4:15 AM,50.0,46.4,87,29.91,0.8,South,19.6,24.2,N/A,,Overcast,170,2012-12-15 10:15:00
4:36 AM,50.0,46.4,87,29.89,1.2,SSE,20.7,-,N/A,,Overcast,160,2012-12-15 10:36:00
4:55 AM,50.0,46.4,87,29.89,2.5,SSE,18.4,25.3,N/A,,Overcast,160,2012-12-15 10:55:00
5:15 AM,51.8,48.2,88,29.90,4.0,South,17.3,25.3,0.01,,Overcast,170,2012-12-15 11:15:00
5:35 AM,50.0,48.2,94,29.90,7.0,South,17.3,-,0.02,,Overcast,170,2012-12-15 11:35:00
5:55 AM,50.0,48.2,94,29.91,10.0,South,17.3,-,0.02,,Overcast,180,2012-12-15 11:55:00
6:15 AM,50.0,48.2,94,29.91,7.0,South,17.3,-,N/A,,Overcast,170,2012-12-15 12:15:00
6:35 AM,50.0,48.2,94,29.91,5.0,South,13.8,-,N/A,,Overcast,170,2012-12-15 12:35:00
7:15 AM,50.0,48.2,94,29.89,3.0,South,16.1,-,N/A,,Overcast,170,2012-12-15 13:15:00
7:35 AM,51.8,48.2,88,29.88,10.0,South,18.4,-,N/A,,Overcast,170,2012-12-15 13:35:00
8:15 AM,51.8,50.0,94,29.88,10.0,South,16.1,-,N/A,,Overcast,180,2012-12-15 14:15:00
8:35 AM,51.8,50.0,94,29.87,10.0,South,18.4,24.2,N/A,,Overcast,180,2012-12-15 14:35:00
9:15 AM,53.6,51.8,94,29.86,10.0,South,23.0,27.6,N/A,,Overcast,180,2012-12-15 15:15:00
9:35 AM,53.6,51.8,94,29.87,10.0,South,20.7,27.6,N/A,,Overcast,180,2012-12-15 15:35:00
9:55 AM,53.6,51.8,94,29.86,10.0,South,21.9,28.8,N/A,,Overcast,190,2012-12-15 15:55:00
10:16 AM,53.6,51.8,94,29.86,7.0,South,23.0,27.6,N/A,,Overcast,190,2012-12-15 16:16:00
10:35 AM,53.6,51.8,94,29.86,4.0,South,21.9,27.6,N/A,,Overcast,190,2012-12-15 16:35:00
10:55 AM,53.6,51.8,94,29.86,3.0,South,19.6,25.3,N/A,,Overcast,190,2012-12-15 16:55:00
11:16 AM,53.6,53.6,100,29.85,3.0,South,21.9,-,N/A,,Overcast,190,2012-12-15 17:16:00
11:35 AM,53.6,53.6,100,29.83,3.0,South,21.9,25.3,N/A,,Overcast,190,2012-12-15 17:35:00
11:55 AM,55.4,53.6,94,29.82,4.0,South,20.7,27.6,N/A,,Overcast,180,2012-12-15 17:55:00
12:15 PM,55.4,53.6,94,29.80,7.0,South,21.9,-,N/A,,Overcast,180,2012-12-15 18:15:00
12:35 PM,55.4,55.4,100,29.79,5.0,South,20.7,-,N/A,,Overcast,180,2012-12-15 18:35:00
12:55 PM,55.4,55.4,100,29.79,7.0,South,24.2,28.8,N/A,,Overcast,180,2012-12-15 18:55:00
1:15 PM,57.2,55.4,94,29.78,7.0,South,21.9,27.6,N/A,,Overcast,190,2012-12-15 19:15:00
1:35 PM,57.2,55.4,94,29.78,9.0,South,19.6,25.3,N/A,,Overcast,190,2012-12-15 19:35:00
2:15 PM,57.2,55.4,94,29.78,10.0,South,18.4,-,N/A,,Overcast,190,2012-12-15 20:15:00
2:55 PM,59.0,57.2,94,29.76,10.0,South,18.4,23.0,N/A,,Overcast,190,2012-12-15 20:55:00
3:35 PM,60.8,57.2,88,29.77,10.0,South,17.3,-,N/A,,Overcast,190,2012-12-15 21:35:00
3:55 PM,59.0,57.2,94,29.78,10.0,South,17.3,-,N/A,,Overcast,190,2012-12-15 21:55:00
4:15 PM,59.0,57.2,94,29.78,9.0,South,17.3,-,N/A,,Overcast,190,2012-12-15 22:15:00
4:35 PM,57.2,57.2,100,29.78,9.0,South,15.0,-,N/A,,Scattered Clouds,190,2012-12-15 22:35:00
4:55 PM,57.2,57.2,100,29.77,9.0,South,16.1,-,N/A,,Clear,190,2012-12-15 22:55:00
5:15 PM,57.2,57.2,100,29.77,9.0,South,16.1,-,N/A,,Clear,190,2012-12-15 23:15:00
5:55 PM,57.2,57.2,100,29.77,10.0,South,16.1,-,N/A,,Clear,190,2012-12-15 23:55:00
6:35 PM,59.0,57.2,94,29.79,10.0,South,17.3,-,N/A,,Clear,190,2012-12-16 00:35:00
6:56 PM,59.0,57.2,94,29.79,10.0,South,13.8,-,N/A,,Clear,190,2012-12-16 00:56:00
7:15 PM,59.0,57.2,94,29.80,10.0,SSW,13.8,-,N/A,,Clear,200,2012-12-16 01:15:00
7:35 PM,57.2,57.2,100,29.80,9.0,South,11.5,-,N/A,,Clear,190,2012-12-16 01:35:00
8:15 PM,57.2,57.2,100,29.80,10.0,South,13.8,-,N/A,,Clear,190,2012-12-16 02:15:00
8:35 PM,57.2,57.2,100,29.80,9.0,South,15.0,-,N/A,,Scattered Clouds,190,2012-12-16 02:35:00
9:15 PM,59.0,57.2,94,29.81,9.0,South,15.0,-,N/A,,Scattered Clouds,190,2012-12-16 03:15:00
9:35 PM,59.0,57.2,94,29.81,9.0,South,13.8,-,N/A,,Mostly Cloudy,190,2012-12-16 03:35:00
9:55 PM,59.0,57.2,94,29.81,8.0,South,12.7,-,N/A,,Mostly Cloudy,190,2012-12-16 03:55:00
10:16 PM,57.2,55.4,94,29.81,7.0,SSW,10.4,-,N/A,,Mostly Cloudy,200,2012-12-16 04:16:00
10:35 PM,57.2,55.4,94,29.81,6.0,SSW,12.7,-,N/A,,Mostly Cloudy,200,2012-12-16 04:35:00
10:55 PM,57.2,55.4,94,29.81,5.0,SSW,12.7,-,N/A,,Partly Cloudy,200,2012-12-16 04:55:00
11:15 PM,57.2,55.4,94,29.81,5.0,SSW,11.5,-,N/A,,Partly Cloudy,200,2012-12-16 05:15:00
11:35 PM,57.2,57.2,100,29.80,4.0,SSW,10.4,-,N/A,,Scattered Clouds,200,2012-12-16 05:35:00
11:55 PM,57.2,55.4,94,29.79,2.5,SSW,10.4,-,N/A,,Partly Cloudy,200,2012-12-16 05:55:00